owner,sensor,date,latitude,longitude,sea_surface_height_above_sea_level,qcFlag 
COMPS,ioos:station:USF.COMPS:ARP:1,2008-07-01T00:00:00Z,28.4330,-82.6670,-0.519,1111122 
COMPS,ioos:station:USF.COMPS:ARP:1,2008-07-01T00:06:00Z,28.4330,-82.6670,-0.524,1111122 
COMPS,ioos:station:USF.COMPS:ARP:1,2008-07-01T00:12:00Z,28.4330,-82.6670,-0.527,1111122 
COMPS,ioos:station:USF.COMPS:ARP:1,2008-07-01T00:18:00Z,28.4330,-82.6670,-0.532,1111122 
COMPS,ioos:station:USF.COMPS:ARP:1,2008-07-01T00:24:00Z,28.4330,-82.6670,-0.536,1111122 
COMPS,ioos:station:USF.COMPS:ARP:1,2008-07-01T00:30:00Z,28.4330,-82.6670,-0.54,1111122 
COMPS,ioos:station:USF.COMPS:ARP:1,2008-07-01T00:36:00Z,28.4330,-82.6670,-0.545,1111122 
COMPS,ioos:station:USF.COMPS:ARP:1,2008-07-01T00:42:00Z,28.4330,-82.6670,-0.549,1111122 
COMPS,ioos:station:USF.COMPS:ARP:1,2008-07-01T00:48:00Z,28.4330,-82.6670,-0.552,1111122 
COMPS,ioos:station:USF.COMPS:ARP:1,2008-07-01T00:54:00Z,28.4330,-82.6670,-0.556,1111122 
COMPS,ioos:station:USF.COMPS:ARP:1,2008-07-01T01:00:00Z,28.4330,-82.6670,-0.559,1111122 
COMPS,ioos:station:USF.COMPS:ARP:1,2008-07-01T01:06:00Z,28.4330,-82.6670,-0.564,1111122 
COMPS,ioos:station:USF.COMPS:ARP:1,2008-07-01T01:12:00Z,28.4330,-82.6670,-0.568,1111122 
COMPS,ioos:station:USF.COMPS:ARP:1,2008-07-01T01:18:00Z,28.4330,-82.6670,-0.571,1111122 
COMPS,ioos:station:USF.COMPS:ARP:1,2008-07-01T01:24:00Z,28.4330,-82.6670,-0.574,1111122 
COMPS,ioos:station:USF.COMPS:ARP:1,2008-07-01T01:30:00Z,28.4330,-82.6670,-0.564,1111122 
COMPS,ioos:station:USF.COMPS:ARP:1,2008-07-01T01:36:00Z,28.4330,-82.6670,-0.562,1111122 
COMPS,ioos:station:USF.COMPS:ARP:1,2008-07-01T01:42:00Z,28.4330,-82.6670,-0.562,1111122 
COMPS,ioos:station:USF.COMPS:ARP:1,2008-07-01T01:48:00Z,28.4330,-82.6670,-0.563,1111122 
COMPS,ioos:station:USF.COMPS:ARP:1,2008-07-01T01:54:00Z,28.4330,-82.6670,-0.564,1111122 
COMPS,ioos:station:USF.COMPS:ARP:1,2008-07-01T02:00:00Z,28.4330,-82.6670,-0.564,1111122 
COMPS,ioos:station:USF.COMPS:ARP:1,2008-07-01T02:06:00Z,28.4330,-82.6670,-0.564,1111122 
COMPS,ioos:station:USF.COMPS:ARP:1,2008-07-01T02:12:00Z,28.4330,-82.6670,-0.563,1111122 
COMPS,ioos:station:USF.COMPS:ARP:1,2008-07-01T02:18:00Z,28.4330,-82.6670,-0.562,1111122 
COMPS,ioos:station:USF.COMPS:ARP:1,2008-07-01T02:24:00Z,28.4330,-82.6670,-0.562,1111122 
COMPS,ioos:station:USF.COMPS:ARP:1,2008-07-01T02:30:00Z,28.4330,-82.6670,-0.564,1111122 
COMPS,ioos:station:USF.COMPS:ARP:1,2008-07-01T02:36:00Z,28.4330,-82.6670,-0.571,1111122 
COMPS,ioos:station:USF.COMPS:ARP:1,2008-07-01T02:42:00Z,28.4330,-82.6670,-0.565,1111122 
COMPS,ioos:station:USF.COMPS:ARP:1,2008-07-01T02:48:00Z,28.4330,-82.6670,-0.556,1111122 
COMPS,ioos:station:USF.COMPS:ARP:1,2008-07-01T02:54:00Z,28.4330,-82.6670,-0.545,1111122 
COMPS,ioos:station:USF.COMPS:ARP:1,2008-07-01T03:00:00Z,28.4330,-82.6670,-0.532,1111122 
COMPS,ioos:station:USF.COMPS:ARP:1,2008-07-01T03:06:00Z,28.4330,-82.6670,-0.516,1111122 
COMPS,ioos:station:USF.COMPS:ARP:1,2008-07-01T03:12:00Z,28.4330,-82.6670,-0.497,1111122 
COMPS,ioos:station:USF.COMPS:ARP:1,2008-07-01T03:18:00Z,28.4330,-82.6670,-0.476,1111122 
COMPS,ioos:station:USF.COMPS:ARP:1,2008-07-01T03:24:00Z,28.4330,-82.6670,-0.452,1111122 
COMPS,ioos:station:USF.COMPS:ARP:1,2008-07-01T03:30:00Z,28.4330,-82.6670,-0.425,1111122 
COMPS,ioos:station:USF.COMPS:ARP:1,2008-07-01T03:36:00Z,28.4330,-82.6670,-0.393,1111122 
COMPS,ioos:station:USF.COMPS:ARP:1,2008-07-01T03:42:00Z,28.4330,-82.6670,-0.357,1111122 
COMPS,ioos:station:USF.COMPS:ARP:1,2008-07-01T03:48:00Z,28.4330,-82.6670,-0.324,1111122 
COMPS,ioos:station:USF.COMPS:ARP:1,2008-07-01T03:54:00Z,28.4330,-82.6670,-0.291,1111122 
COMPS,ioos:station:USF.COMPS:ARP:1,2008-07-01T04:00:00Z,28.4330,-82.6670,-0.257,1111122 
COMPS,ioos:station:USF.COMPS:ARP:1,2008-07-01T04:06:00Z,28.4330,-82.6670,-0.221,1111122 
COMPS,ioos:station:USF.COMPS:ARP:1,2008-07-01T04:12:00Z,28.4330,-82.6670,-0.185,1111122 
COMPS,ioos:station:USF.COMPS:ARP:1,2008-07-01T04:18:00Z,28.4330,-82.6670,-0.149,1111122 
COMPS,ioos:station:USF.COMPS:ARP:1,2008-07-01T04:24:00Z,28.4330,-82.6670,-0.116,1111122 
COMPS,ioos:station:USF.COMPS:ARP:1,2008-07-01T04:30:00Z,28.4330,-82.6670,-0.084,1111122 
COMPS,ioos:station:USF.COMPS:ARP:1,2008-07-01T04:36:00Z,28.4330,-82.6670,-0.052,1111122 
COMPS,ioos:station:USF.COMPS:ARP:1,2008-07-01T04:42:00Z,28.4330,-82.6670,-0.021,1111122 
COMPS,ioos:station:USF.COMPS:ARP:1,2008-07-01T04:48:00Z,28.4330,-82.6670,0.006,1111122 
COMPS,ioos:station:USF.COMPS:ARP:1,2008-07-01T04:54:00Z,28.4330,-82.6670,0.032,1111122 
COMPS,ioos:station:USF.COMPS:ARP:1,2008-07-01T05:00:00Z,28.4330,-82.6670,0.056,1111122 
COMPS,ioos:station:USF.COMPS:ARP:1,2008-07-01T05:06:00Z,28.4330,-82.6670,0.075,1111122 
COMPS,ioos:station:USF.COMPS:ARP:1,2008-07-01T05:12:00Z,28.4330,-82.6670,0.093,1111122 
COMPS,ioos:station:USF.COMPS:ARP:1,2008-07-01T05:18:00Z,28.4330,-82.6670,0.11,1111122 
COMPS,ioos:station:USF.COMPS:ARP:1,2008-07-01T05:24:00Z,28.4330,-82.6670,0.126,1111122 
COMPS,ioos:station:USF.COMPS:ARP:1,2008-07-01T05:30:00Z,28.4330,-82.6670,0.138,1111122 
COMPS,ioos:station:USF.COMPS:ARP:1,2008-07-01T05:36:00Z,28.4330,-82.6670,0.156,1111122 
COMPS,ioos:station:USF.COMPS:ARP:1,2008-07-01T05:42:00Z,28.4330,-82.6670,0.169,1111122 
COMPS,ioos:station:USF.COMPS:ARP:1,2008-07-01T05:48:00Z,28.4330,-82.6670,0.177,1111122 
COMPS,ioos:station:USF.COMPS:ARP:1,2008-07-01T05:54:00Z,28.4330,-82.6670,0.176,1111122 
COMPS,ioos:station:USF.COMPS:ARP:1,2008-07-01T06:00:00Z,28.4330,-82.6670,0.179,1111122 
COMPS,ioos:station:USF.COMPS:ARP:1,2008-07-01T06:06:00Z,28.4330,-82.6670,0.171,1111122 
COMPS,ioos:station:USF.COMPS:ARP:1,2008-07-01T06:12:00Z,28.4330,-82.6670,0.159,1111122 
COMPS,ioos:station:USF.COMPS:ARP:1,2008-07-01T06:18:00Z,28.4330,-82.6670,0.136,1111122 
COMPS,ioos:station:USF.COMPS:ARP:1,2008-07-01T06:24:00Z,28.4330,-82.6670,0.116,1111122 
COMPS,ioos:station:USF.COMPS:ARP:1,2008-07-01T06:30:00Z,28.4330,-82.6670,0.113,1111122 
COMPS,ioos:station:USF.COMPS:ARP:1,2008-07-01T06:36:00Z,28.4330,-82.6670,0.11,1111122 
COMPS,ioos:station:USF.COMPS:ARP:1,2008-07-01T06:42:00Z,28.4330,-82.6670,0.088,1111122 
COMPS,ioos:station:USF.COMPS:ARP:1,2008-07-01T06:48:00Z,28.4330,-82.6670,0.078,1111122 
COMPS,ioos:station:USF.COMPS:ARP:1,2008-07-01T06:54:00Z,28.4330,-82.6670,0.062,1111122 
COMPS,ioos:station:USF.COMPS:ARP:1,2008-07-01T07:00:00Z,28.4330,-82.6670,0.048,1111122 
COMPS,ioos:station:USF.COMPS:ARP:1,2008-07-01T07:06:00Z,28.4330,-82.6670,0.037,1111122 
COMPS,ioos:station:USF.COMPS:ARP:1,2008-07-01T07:12:00Z,28.4330,-82.6670,0.027,1111122 
COMPS,ioos:station:USF.COMPS:ARP:1,2008-07-01T07:18:00Z,28.4330,-82.6670,0.017,1111122 
COMPS,ioos:station:USF.COMPS:ARP:1,2008-07-01T07:24:00Z,28.4330,-82.6670,0.008,1111122 
COMPS,ioos:station:USF.COMPS:ARP:1,2008-07-01T07:30:00Z,28.4330,-82.6670,0.004,1111122 
COMPS,ioos:station:USF.COMPS:ARP:1,2008-07-01T07:36:00Z,28.4330,-82.6670,0.002,1111122 
COMPS,ioos:station:USF.COMPS:ARP:1,2008-07-01T07:42:00Z,28.4330,-82.6670,0.003,1111122 
COMPS,ioos:station:USF.COMPS:ARP:1,2008-07-01T07:48:00Z,28.4330,-82.6670,0.002,1111122 
COMPS,ioos:station:USF.COMPS:ARP:1,2008-07-01T07:54:00Z,28.4330,-82.6670,-0.004,1111122 
COMPS,ioos:station:USF.COMPS:ARP:1,2008-07-01T08:00:00Z,28.4330,-82.6670,-0.016,1111122 
COMPS,ioos:station:USF.COMPS:ARP:1,2008-07-01T08:06:00Z,28.4330,-82.6670,-0.024,1111122 
COMPS,ioos:station:USF.COMPS:ARP:1,2008-07-01T08:12:00Z,28.4330,-82.6670,-0.032,1111122 
COMPS,ioos:station:USF.COMPS:ARP:1,2008-07-01T08:18:00Z,28.4330,-82.6670,-0.043,1111122 
COMPS,ioos:station:USF.COMPS:ARP:1,2008-07-01T08:24:00Z,28.4330,-82.6670,-0.053,1111122 
COMPS,ioos:station:USF.COMPS:ARP:1,2008-07-01T08:30:00Z,28.4330,-82.6670,-0.058,1111122 
COMPS,ioos:station:USF.COMPS:ARP:1,2008-07-01T08:36:00Z,28.4330,-82.6670,-0.059,1111122 
COMPS,ioos:station:USF.COMPS:ARP:1,2008-07-01T08:42:00Z,28.4330,-82.6670,-0.062,1111122 
COMPS,ioos:station:USF.COMPS:ARP:1,2008-07-01T08:48:00Z,28.4330,-82.6670,-0.066,1111122 
COMPS,ioos:station:USF.COMPS:ARP:1,2008-07-01T08:54:00Z,28.4330,-82.6670,-0.071,1111122 
COMPS,ioos:station:USF.COMPS:ARP:1,2008-07-01T09:00:00Z,28.4330,-82.6670,-0.068,1111122 
COMPS,ioos:station:USF.COMPS:ARP:1,2008-07-01T09:06:00Z,28.4330,-82.6670,-0.066,1111122 
COMPS,ioos:station:USF.COMPS:ARP:1,2008-07-01T09:12:00Z,28.4330,-82.6670,-0.072,1111122 
COMPS,ioos:station:USF.COMPS:ARP:1,2008-07-01T09:18:00Z,28.4330,-82.6670,-0.075,1111122 
COMPS,ioos:station:USF.COMPS:ARP:1,2008-07-01T09:24:00Z,28.4330,-82.6670,-0.082,1111122 
COMPS,ioos:station:USF.COMPS:ARP:1,2008-07-01T09:30:00Z,28.4330,-82.6670,-0.093,1111122 
COMPS,ioos:station:USF.COMPS:ARP:1,2008-07-01T09:36:00Z,28.4330,-82.6670,-0.099,1111122 
COMPS,ioos:station:USF.COMPS:ARP:1,2008-07-01T09:42:00Z,28.4330,-82.6670,-0.107,1111122 
COMPS,ioos:station:USF.COMPS:ARP:1,2008-07-01T09:48:00Z,28.4330,-82.6670,-0.119,1111122 
COMPS,ioos:station:USF.COMPS:ARP:1,2008-07-01T09:54:00Z,28.4330,-82.6670,-0.124,1111122 
COMPS,ioos:station:USF.COMPS:ARP:1,2008-07-01T10:00:00Z,28.4330,-82.6670,-0.13,1111122 
COMPS,ioos:station:USF.COMPS:ARP:1,2008-07-01T10:06:00Z,28.4330,-82.6670,-0.135,1111122 
COMPS,ioos:station:USF.COMPS:ARP:1,2008-07-01T10:12:00Z,28.4330,-82.6670,-0.143,1111122 
COMPS,ioos:station:USF.COMPS:ARP:1,2008-07-01T10:18:00Z,28.4330,-82.6670,-0.146,1111122 
COMPS,ioos:station:USF.COMPS:ARP:1,2008-07-01T10:24:00Z,28.4330,-82.6670,-0.149,1111122 
COMPS,ioos:station:USF.COMPS:ARP:1,2008-07-01T10:30:00Z,28.4330,-82.6670,-0.143,1111122 
COMPS,ioos:station:USF.COMPS:ARP:1,2008-07-01T10:36:00Z,28.4330,-82.6670,-0.139,1111122 
COMPS,ioos:station:USF.COMPS:ARP:1,2008-07-01T10:42:00Z,28.4330,-82.6670,-0.131,1111122 
COMPS,ioos:station:USF.COMPS:ARP:1,2008-07-01T10:48:00Z,28.4330,-82.6670,-0.119,1111122 
COMPS,ioos:station:USF.COMPS:ARP:1,2008-07-01T10:54:00Z,28.4330,-82.6670,-0.105,1111122 
COMPS,ioos:station:USF.COMPS:ARP:1,2008-07-01T11:00:00Z,28.4330,-82.6670,-0.099,1111122 
COMPS,ioos:station:USF.COMPS:ARP:1,2008-07-01T11:06:00Z,28.4330,-82.6670,-0.084,1111122 
COMPS,ioos:station:USF.COMPS:ARP:1,2008-07-01T11:12:00Z,28.4330,-82.6670,-0.068,1111122 
COMPS,ioos:station:USF.COMPS:ARP:1,2008-07-01T11:18:00Z,28.4330,-82.6670,-0.061,1111122 
COMPS,ioos:station:USF.COMPS:ARP:1,2008-07-01T11:24:00Z,28.4330,-82.6670,-0.052,1111122 
COMPS,ioos:station:USF.COMPS:ARP:1,2008-07-01T11:30:00Z,28.4330,-82.6670,-0.04,1111122 
COMPS,ioos:station:USF.COMPS:ARP:1,2008-07-01T11:36:00Z,28.4330,-82.6670,-0.034,1111122 
COMPS,ioos:station:USF.COMPS:ARP:1,2008-07-01T11:42:00Z,28.4330,-82.6670,-0.023,1111122 
COMPS,ioos:station:USF.COMPS:ARP:1,2008-07-01T11:48:00Z,28.4330,-82.6670,-0.014,1111122 
COMPS,ioos:station:USF.COMPS:ARP:1,2008-07-01T11:54:00Z,28.4330,-82.6670,0.0,1114422 
COMPS,ioos:station:USF.COMPS:ARP:1,2008-07-01T12:00:00Z,28.4330,-82.6670,0.013,1111122 
COMPS,ioos:station:USF.COMPS:ARP:1,2008-07-01T12:06:00Z,28.4330,-82.6670,0.03,1111122 
COMPS,ioos:station:USF.COMPS:ARP:1,2008-07-01T12:12:00Z,28.4330,-82.6670,0.044,1111122 
COMPS,ioos:station:USF.COMPS:ARP:1,2008-07-01T12:18:00Z,28.4330,-82.6670,0.058,1111122 
COMPS,ioos:station:USF.COMPS:ARP:1,2008-07-01T12:24:00Z,28.4330,-82.6670,0.073,1111122 
COMPS,ioos:station:USF.COMPS:ARP:1,2008-07-01T12:30:00Z,28.4330,-82.6670,0.089,1111122 
COMPS,ioos:station:USF.COMPS:ARP:1,2008-07-01T12:36:00Z,28.4330,-82.6670,0.107,1111122 
COMPS,ioos:station:USF.COMPS:ARP:1,2008-07-01T12:42:00Z,28.4330,-82.6670,0.119,1111122 
COMPS,ioos:station:USF.COMPS:ARP:1,2008-07-01T12:48:00Z,28.4330,-82.6670,0.138,1111122 
COMPS,ioos:station:USF.COMPS:ARP:1,2008-07-01T12:54:00Z,28.4330,-82.6670,0.159,1111122 
COMPS,ioos:station:USF.COMPS:ARP:1,2008-07-01T13:00:00Z,28.4330,-82.6670,0.177,1111122 
COMPS,ioos:station:USF.COMPS:ARP:1,2008-07-01T13:06:00Z,28.4330,-82.6670,0.199,1111122 
COMPS,ioos:station:USF.COMPS:ARP:1,2008-07-01T13:12:00Z,28.4330,-82.6670,0.221,1111122 
COMPS,ioos:station:USF.COMPS:ARP:1,2008-07-01T13:18:00Z,28.4330,-82.6670,0.246,1111122 
COMPS,ioos:station:USF.COMPS:ARP:1,2008-07-01T13:24:00Z,28.4330,-82.6670,0.268,1111122 
COMPS,ioos:station:USF.COMPS:ARP:1,2008-07-01T13:30:00Z,28.4330,-82.6670,0.29,1111122 
COMPS,ioos:station:USF.COMPS:ARP:1,2008-07-01T13:36:00Z,28.4330,-82.6670,0.314,1111122 
COMPS,ioos:station:USF.COMPS:ARP:1,2008-07-01T13:42:00Z,28.4330,-82.6670,0.334,1111122 
COMPS,ioos:station:USF.COMPS:ARP:1,2008-07-01T13:48:00Z,28.4330,-82.6670,0.357,1111122 
COMPS,ioos:station:USF.COMPS:ARP:1,2008-07-01T13:54:00Z,28.4330,-82.6670,0.378,1111122 
COMPS,ioos:station:USF.COMPS:ARP:1,2008-07-01T14:00:00Z,28.4330,-82.6670,0.397,1111122 
COMPS,ioos:station:USF.COMPS:ARP:1,2008-07-01T14:06:00Z,28.4330,-82.6670,0.416,1111122 
COMPS,ioos:station:USF.COMPS:ARP:1,2008-07-01T14:12:00Z,28.4330,-82.6670,0.436,1111122 
COMPS,ioos:station:USF.COMPS:ARP:1,2008-07-01T14:18:00Z,28.4330,-82.6670,0.453,1111122 
COMPS,ioos:station:USF.COMPS:ARP:1,2008-07-01T14:24:00Z,28.4330,-82.6670,0.472,1111122 
COMPS,ioos:station:USF.COMPS:ARP:1,2008-07-01T14:30:00Z,28.4330,-82.6670,0.488,1111122 
COMPS,ioos:station:USF.COMPS:ARP:1,2008-07-01T14:36:00Z,28.4330,-82.6670,0.501,1111122 
COMPS,ioos:station:USF.COMPS:ARP:1,2008-07-01T14:42:00Z,28.4330,-82.6670,0.518,1111122 
COMPS,ioos:station:USF.COMPS:ARP:1,2008-07-01T14:48:00Z,28.4330,-82.6670,0.53,1111122 
COMPS,ioos:station:USF.COMPS:ARP:1,2008-07-01T14:54:00Z,28.4330,-82.6670,0.544,1111122 
COMPS,ioos:station:USF.COMPS:ARP:1,2008-07-01T15:00:00Z,28.4330,-82.6670,0.557,1111122 
COMPS,ioos:station:USF.COMPS:ARP:1,2008-07-01T15:06:00Z,28.4330,-82.6670,0.565,1111122 
COMPS,ioos:station:USF.COMPS:ARP:1,2008-07-01T15:12:00Z,28.4330,-82.6670,0.581,1111122 
COMPS,ioos:station:USF.COMPS:ARP:1,2008-07-01T15:18:00Z,28.4330,-82.6670,0.588,1111122 
COMPS,ioos:station:USF.COMPS:ARP:1,2008-07-01T15:24:00Z,28.4330,-82.6670,0.594,1111122 
COMPS,ioos:station:USF.COMPS:ARP:1,2008-07-01T15:30:00Z,28.4330,-82.6670,0.602,1111122 
COMPS,ioos:station:USF.COMPS:ARP:1,2008-07-01T15:36:00Z,28.4330,-82.6670,0.608,1111122 
COMPS,ioos:station:USF.COMPS:ARP:1,2008-07-01T15:42:00Z,28.4330,-82.6670,0.609,1111122 
COMPS,ioos:station:USF.COMPS:ARP:1,2008-07-01T15:48:00Z,28.4330,-82.6670,0.609,1111122 
COMPS,ioos:station:USF.COMPS:ARP:1,2008-07-01T15:54:00Z,28.4330,-82.6670,0.595,1111122 
COMPS,ioos:station:USF.COMPS:ARP:1,2008-07-01T16:00:00Z,28.4330,-82.6670,0.589,1111122 
COMPS,ioos:station:USF.COMPS:ARP:1,2008-07-01T16:06:00Z,28.4330,-82.6670,0.587,1111122 
COMPS,ioos:station:USF.COMPS:ARP:1,2008-07-01T16:12:00Z,28.4330,-82.6670,0.585,1111122 
COMPS,ioos:station:USF.COMPS:ARP:1,2008-07-01T16:18:00Z,28.4330,-82.6670,0.57,1111122 
COMPS,ioos:station:USF.COMPS:ARP:1,2008-07-01T16:24:00Z,28.4330,-82.6670,0.556,1111122 
COMPS,ioos:station:USF.COMPS:ARP:1,2008-07-01T16:30:00Z,28.4330,-82.6670,0.548,1111122 
COMPS,ioos:station:USF.COMPS:ARP:1,2008-07-01T16:36:00Z,28.4330,-82.6670,0.53,1111122 
COMPS,ioos:station:USF.COMPS:ARP:1,2008-07-01T16:42:00Z,28.4330,-82.6670,0.519,1111122 
COMPS,ioos:station:USF.COMPS:ARP:1,2008-07-01T16:48:00Z,28.4330,-82.6670,0.503,1111122 
COMPS,ioos:station:USF.COMPS:ARP:1,2008-07-01T16:54:00Z,28.4330,-82.6670,0.485,1111122 
COMPS,ioos:station:USF.COMPS:ARP:1,2008-07-01T17:00:00Z,28.4330,-82.6670,0.48,1111122 
COMPS,ioos:station:USF.COMPS:ARP:1,2008-07-01T17:06:00Z,28.4330,-82.6670,0.464,1111122 
COMPS,ioos:station:USF.COMPS:ARP:1,2008-07-01T17:12:00Z,28.4330,-82.6670,0.448,1111122 
COMPS,ioos:station:USF.COMPS:ARP:1,2008-07-01T17:18:00Z,28.4330,-82.6670,0.435,1111122 
COMPS,ioos:station:USF.COMPS:ARP:1,2008-07-01T17:24:00Z,28.4330,-82.6670,0.419,1111122 
COMPS,ioos:station:USF.COMPS:ARP:1,2008-07-01T17:30:00Z,28.4330,-82.6670,0.401,1111122 
COMPS,ioos:station:USF.COMPS:ARP:1,2008-07-01T17:36:00Z,28.4330,-82.6670,0.388,1111122 
COMPS,ioos:station:USF.COMPS:ARP:1,2008-07-01T17:42:00Z,28.4330,-82.6670,0.366,1111122 
COMPS,ioos:station:USF.COMPS:ARP:1,2008-07-01T17:48:00Z,28.4330,-82.6670,0.356,1111122 
COMPS,ioos:station:USF.COMPS:ARP:1,2008-07-01T17:54:00Z,28.4330,-82.6670,0.344,1111122 
COMPS,ioos:station:USF.COMPS:ARP:1,2008-07-01T18:00:00Z,28.4330,-82.6670,0.326,1111122 
COMPS,ioos:station:USF.COMPS:ARP:1,2008-07-01T18:06:00Z,28.4330,-82.6670,0.312,1111122 
COMPS,ioos:station:USF.COMPS:ARP:1,2008-07-01T18:12:00Z,28.4330,-82.6670,0.298,1111122 
COMPS,ioos:station:USF.COMPS:ARP:1,2008-07-01T18:18:00Z,28.4330,-82.6670,0.28,1111122 
COMPS,ioos:station:USF.COMPS:ARP:1,2008-07-01T18:24:00Z,28.4330,-82.6670,0.27,1111122 
COMPS,ioos:station:USF.COMPS:ARP:1,2008-07-01T18:30:00Z,28.4330,-82.6670,0.258,1111122 
COMPS,ioos:station:USF.COMPS:ARP:1,2008-07-01T18:36:00Z,28.4330,-82.6670,0.245,1111122 
COMPS,ioos:station:USF.COMPS:ARP:1,2008-07-01T18:42:00Z,28.4330,-82.6670,0.228,1111122 
COMPS,ioos:station:USF.COMPS:ARP:1,2008-07-01T18:48:00Z,28.4330,-82.6670,0.214,1111122 
COMPS,ioos:station:USF.COMPS:ARP:1,2008-07-01T18:54:00Z,28.4330,-82.6670,0.197,1111122 
COMPS,ioos:station:USF.COMPS:ARP:1,2008-07-01T19:00:00Z,28.4330,-82.6670,0.18,1111122 
COMPS,ioos:station:USF.COMPS:ARP:1,2008-07-01T19:06:00Z,28.4330,-82.6670,0.164,1111122 
COMPS,ioos:station:USF.COMPS:ARP:1,2008-07-01T19:12:00Z,28.4330,-82.6670,0.149,1111122 
COMPS,ioos:station:USF.COMPS:ARP:1,2008-07-01T19:18:00Z,28.4330,-82.6670,0.131,1111122 
COMPS,ioos:station:USF.COMPS:ARP:1,2008-07-01T19:24:00Z,28.4330,-82.6670,0.115,1111122 
COMPS,ioos:station:USF.COMPS:ARP:1,2008-07-01T19:30:00Z,28.4330,-82.6670,0.098,1111122 
COMPS,ioos:station:USF.COMPS:ARP:1,2008-07-01T19:36:00Z,28.4330,-82.6670,0.078,1111122 
COMPS,ioos:station:USF.COMPS:ARP:1,2008-07-01T19:42:00Z,28.4330,-82.6670,0.059,1111122 
COMPS,ioos:station:USF.COMPS:ARP:1,2008-07-01T19:48:00Z,28.4330,-82.6670,0.038,1111122 
COMPS,ioos:station:USF.COMPS:ARP:1,2008-07-01T19:54:00Z,28.4330,-82.6670,0.019,1111122 
COMPS,ioos:station:USF.COMPS:ARP:1,2008-07-01T20:00:00Z,28.4330,-82.6670,0.0,1114422 
COMPS,ioos:station:USF.COMPS:ARP:1,2008-07-01T20:06:00Z,28.4330,-82.6670,-0.019,1111122 
COMPS,ioos:station:USF.COMPS:ARP:1,2008-07-01T20:12:00Z,28.4330,-82.6670,-0.037,1111122 
COMPS,ioos:station:USF.COMPS:ARP:1,2008-07-01T20:18:00Z,28.4330,-82.6670,-0.055,1111122 
COMPS,ioos:station:USF.COMPS:ARP:1,2008-07-01T20:24:00Z,28.4330,-82.6670,-0.073,1111122 
COMPS,ioos:station:USF.COMPS:ARP:1,2008-07-01T20:30:00Z,28.4330,-82.6670,-0.09,1111122 
COMPS,ioos:station:USF.COMPS:ARP:1,2008-07-01T20:36:00Z,28.4330,-82.6670,-0.109,1111122 
COMPS,ioos:station:USF.COMPS:ARP:1,2008-07-01T20:42:00Z,28.4330,-82.6670,-0.126,1111122 
COMPS,ioos:station:USF.COMPS:ARP:1,2008-07-01T20:48:00Z,28.4330,-82.6670,-0.144,1111122 
COMPS,ioos:station:USF.COMPS:ARP:1,2008-07-01T20:54:00Z,28.4330,-82.6670,-0.161,1111122 
COMPS,ioos:station:USF.COMPS:ARP:1,2008-07-01T21:00:00Z,28.4330,-82.6670,-0.178,1111122 
COMPS,ioos:station:USF.COMPS:ARP:1,2008-07-01T21:06:00Z,28.4330,-82.6670,-0.194,1111122 
COMPS,ioos:station:USF.COMPS:ARP:1,2008-07-01T21:12:00Z,28.4330,-82.6670,-0.21,1111122 
COMPS,ioos:station:USF.COMPS:ARP:1,2008-07-01T21:18:00Z,28.4330,-82.6670,-0.226,1111122 
COMPS,ioos:station:USF.COMPS:ARP:1,2008-07-01T21:24:00Z,28.4330,-82.6670,-0.241,1111122 
COMPS,ioos:station:USF.COMPS:ARP:1,2008-07-01T21:30:00Z,28.4330,-82.6670,-0.257,1111122 
COMPS,ioos:station:USF.COMPS:ARP:1,2008-07-01T21:36:00Z,28.4330,-82.6670,-0.273,1111122 
COMPS,ioos:station:USF.COMPS:ARP:1,2008-07-01T21:42:00Z,28.4330,-82.6670,-0.286,1111122 
COMPS,ioos:station:USF.COMPS:ARP:1,2008-07-01T21:48:00Z,28.4330,-82.6670,-0.299,1111122 
COMPS,ioos:station:USF.COMPS:ARP:1,2008-07-01T21:54:00Z,28.4330,-82.6670,-0.311,1111122 
COMPS,ioos:station:USF.COMPS:ARP:1,2008-07-01T22:00:00Z,28.4330,-82.6670,-0.324,1111122 
COMPS,ioos:station:USF.COMPS:ARP:1,2008-07-01T22:06:00Z,28.4330,-82.6670,-0.338,1111122 
COMPS,ioos:station:USF.COMPS:ARP:1,2008-07-01T22:12:00Z,28.4330,-82.6670,-0.351,1111122 
COMPS,ioos:station:USF.COMPS:ARP:1,2008-07-01T22:18:00Z,28.4330,-82.6670,-0.364,1111122 
COMPS,ioos:station:USF.COMPS:ARP:1,2008-07-01T22:24:00Z,28.4330,-82.6670,-0.377,1111122 
COMPS,ioos:station:USF.COMPS:ARP:1,2008-07-01T22:30:00Z,28.4330,-82.6670,-0.389,1111122 
COMPS,ioos:station:USF.COMPS:ARP:1,2008-07-01T22:36:00Z,28.4330,-82.6670,-0.4,1111122 
COMPS,ioos:station:USF.COMPS:ARP:1,2008-07-01T22:42:00Z,28.4330,-82.6670,-0.411,1111122 
COMPS,ioos:station:USF.COMPS:ARP:1,2008-07-01T22:48:00Z,28.4330,-82.6670,-0.419,1111122 
COMPS,ioos:station:USF.COMPS:ARP:1,2008-07-01T22:54:00Z,28.4330,-82.6670,-0.428,1111122 
COMPS,ioos:station:USF.COMPS:ARP:1,2008-07-01T23:00:00Z,28.4330,-82.6670,-0.437,1111122 
COMPS,ioos:station:USF.COMPS:ARP:1,2008-07-01T23:06:00Z,28.4330,-82.6670,-0.446,1111122 
COMPS,ioos:station:USF.COMPS:ARP:1,2008-07-01T23:12:00Z,28.4330,-82.6670,-0.455,1111122 
COMPS,ioos:station:USF.COMPS:ARP:1,2008-07-01T23:18:00Z,28.4330,-82.6670,-0.462,1111122 
COMPS,ioos:station:USF.COMPS:ARP:1,2008-07-01T23:24:00Z,28.4330,-82.6670,-0.469,1111122 
COMPS,ioos:station:USF.COMPS:ARP:1,2008-07-01T23:30:00Z,28.4330,-82.6670,-0.474,1111122 
COMPS,ioos:station:USF.COMPS:ARP:1,2008-07-01T23:36:00Z,28.4330,-82.6670,-0.48,1111122 
COMPS,ioos:station:USF.COMPS:ARP:1,2008-07-01T23:42:00Z,28.4330,-82.6670,-0.487,1111122 
COMPS,ioos:station:USF.COMPS:ARP:1,2008-07-01T23:48:00Z,28.4330,-82.6670,-0.493,1111122 
COMPS,ioos:station:USF.COMPS:ARP:1,2008-07-01T23:54:00Z,28.4330,-82.6670,-0.498,1111122 
COMPS,ioos:station:USF.COMPS:ARP:1,2008-07-02T00:00:00Z,28.4330,-82.6670,-0.504,1111122 
COMPS,ioos:station:USF.COMPS:ARP:1,2008-07-02T00:06:00Z,28.4330,-82.6670,-0.51,1111122 
COMPS,ioos:station:USF.COMPS:ARP:1,2008-07-02T00:12:00Z,28.4330,-82.6670,-0.515,1111122 
COMPS,ioos:station:USF.COMPS:ARP:1,2008-07-02T00:18:00Z,28.4330,-82.6670,-0.52,1111122 
COMPS,ioos:station:USF.COMPS:ARP:1,2008-07-02T00:24:00Z,28.4330,-82.6670,-0.524,1111122 
COMPS,ioos:station:USF.COMPS:ARP:1,2008-07-02T00:30:00Z,28.4330,-82.6670,-0.528,1111122 
COMPS,ioos:station:USF.COMPS:ARP:1,2008-07-02T00:36:00Z,28.4330,-82.6670,-0.533,1111122 
COMPS,ioos:station:USF.COMPS:ARP:1,2008-07-02T00:42:00Z,28.4330,-82.6670,-0.538,1111122 
COMPS,ioos:station:USF.COMPS:ARP:1,2008-07-02T00:48:00Z,28.4330,-82.6670,-0.541,1111122 
COMPS,ioos:station:USF.COMPS:ARP:1,2008-07-02T00:54:00Z,28.4330,-82.6670,-0.545,1111122 
COMPS,ioos:station:USF.COMPS:ARP:1,2008-07-02T01:00:00Z,28.4330,-82.6670,-0.549,1111122 
COMPS,ioos:station:USF.COMPS:ARP:1,2008-07-02T01:06:00Z,28.4330,-82.6670,-0.554,1111122 
COMPS,ioos:station:USF.COMPS:ARP:1,2008-07-02T01:12:00Z,28.4330,-82.6670,-0.557,1111122 
COMPS,ioos:station:USF.COMPS:ARP:1,2008-07-02T01:18:00Z,28.4330,-82.6670,-0.561,1111122 
COMPS,ioos:station:USF.COMPS:ARP:1,2008-07-02T01:24:00Z,28.4330,-82.6670,-0.565,1111122 
COMPS,ioos:station:USF.COMPS:ARP:1,2008-07-02T01:30:00Z,28.4330,-82.6670,-0.568,1111122 
COMPS,ioos:station:USF.COMPS:ARP:1,2008-07-02T01:36:00Z,28.4330,-82.6670,-0.571,1111122 
COMPS,ioos:station:USF.COMPS:ARP:1,2008-07-02T01:42:00Z,28.4330,-82.6670,-0.575,1111122 
COMPS,ioos:station:USF.COMPS:ARP:1,2008-07-02T01:48:00Z,28.4330,-82.6670,-0.563,1111122 
COMPS,ioos:station:USF.COMPS:ARP:1,2008-07-02T01:54:00Z,28.4330,-82.6670,-0.563,1111122 
COMPS,ioos:station:USF.COMPS:ARP:1,2008-07-02T02:00:00Z,28.4330,-82.6670,-0.564,1111122 
COMPS,ioos:station:USF.COMPS:ARP:1,2008-07-02T02:06:00Z,28.4330,-82.6670,-0.568,1111122 
COMPS,ioos:station:USF.COMPS:ARP:1,2008-07-02T02:12:00Z,28.4330,-82.6670,-0.571,1111122 
COMPS,ioos:station:USF.COMPS:ARP:1,2008-07-02T02:18:00Z,28.4330,-82.6670,-0.641,1111122 
COMPS,ioos:station:USF.COMPS:ARP:1,2008-07-02T02:24:00Z,28.4330,-82.6670,-0.564,1111122 
COMPS,ioos:station:USF.COMPS:ARP:1,2008-07-02T02:30:00Z,28.4330,-82.6670,-0.561,1111122 
COMPS,ioos:station:USF.COMPS:ARP:1,2008-07-02T02:36:00Z,28.4330,-82.6670,-0.56,1111122 
COMPS,ioos:station:USF.COMPS:ARP:1,2008-07-02T02:42:00Z,28.4330,-82.6670,-0.56,1111122 
COMPS,ioos:station:USF.COMPS:ARP:1,2008-07-02T02:48:00Z,28.4330,-82.6670,-0.559,1111122 
COMPS,ioos:station:USF.COMPS:ARP:1,2008-07-02T02:54:00Z,28.4330,-82.6670,-0.559,1111122 